Regional Weather Roundup
Issued by NWS

Home | Current Version | Previous Version | Text Only | Print | Product List | Glossary Off
Versions: 1 2 3 4 5 6 7 8 9 10 11 12 13 14 15 16 17 18 19 20 21 22 23 24 25 26 27 28 29 30 31 32 33 34 35 36 37 38 39 40 41 42 43 44 45 46 47 48 49 50

000
ASUS43 KDMX 272307
RWRIA

WEATHER ROUNDUP FOR IOWA
NATIONAL WEATHER SERVICE DES MOINES IA
600 PM CDT WED AUG 27 2014

NOTE: "FAIR" INDICATES FEW OR NO CLOUDS BELOW 12,000 FEET WITH NO
SIGNIFICANT WEATHER AND/OR OBSTRUCTIONS TO VISIBILITY.

* - THESE STATIONS ARE NOT NWS STATIONS...THUS NOT UNDER NWS
QUALITY CONTROL.  THEY ALSO DO NOT REPORT WEATHER SUCH
AS PRECIPITATION OR FOG.

IAZ001>003-012>014-020>022-031>034-043>046-280000-
   NORTHWEST IOWA

CITY           SKY/WX    TMP DP  RH WIND       PRES   REMARKS
CARROLL *      MOSUNNY   72  68  88 E7        30.08F
DENISON *      CLOUDY    72  70  94 E8        30.06F
LE MARS *      CLOUDY    73  68  83 CALM      30.09F
ORANGE CITY *  PTSUNNY   75  66  73 E5        30.10F
SHELDON *      CLOUDY    72  66  83 SE6       30.10S
SIOUX CITY       N/A     73  68  84 E6        30.07F
SPENCER        PTSUNNY   72  63  73 SE8       30.11F
STORM LAKE *   MOSUNNY   70  70 100 E7        30.10F
$$

IAZ055>058-069>071-079>083-090>094-280000-
   SOUTHWEST IOWA

CITY           SKY/WX    TMP DP  RH WIND       PRES   REMARKS
ATLANTIC *     CLOUDY    72  70  94 E7        30.08S
AUDUBON *      MOSUNNY   73  70  88 E5        30.10R
CLARINDA *     CLOUDY    73  70  88 SE5       30.09S
COUNCIL BLFS * PTSUNNY   73  72  94 E8        30.06F
CRESTON *      CLOUDY    72  70  94 E8        30.09F
HARLAN  *      CLOUDY    72  70  94 SE7       30.12R
LAMONI         CLOUDY    76  69  79 NE6       30.08F
RED OAK *      CLOUDY    73  72  94 SE5       30.07F
SHENANDOAH *   MOSUNNY   75  72  88 S5        30.07S
$$

IAZ047>049-059>061-072>074-084-280000-
   CENTRAL IOWA

CITY           SKY/WX    TMP DP  RH WIND       PRES   REMARKS
AMES           CLOUDY    74  67  78 E6        30.08F
ANKENY *       SUNNY     75  68  78 E6        30.07F
CHARITON *     MOSUNNY   73  70  88 E7        30.09R
DES MOINES     CLOUDY    76  67  73 E9        30.07F
GRINNELL*      PTSUNNY   73  66  78 NE6       30.10F
KNOXVILLE *    SUNNY     75  66  73 E6        30.07S
MARSHALLTOWN   PTSUNNY   74  65  73 E8        30.10S
PELLA *        PTSUNNY   75  68  78 CALM      30.09F
PERRY *          N/A     73  68  83 E5        30.08F
$$

IAZ004>006-015-016-023>025-035-036-280000-
   NORTH CENTRAL IOWA

CITY           SKY/WX    TMP DP  RH WIND       PRES   REMARKS
ALGONA *       SUNNY     73  63  68 E8        30.11F
CLARION *      SUNNY     73  64  73 E6        30.10F
ESTHERVILLE    PTSUNNY   72  63  73 SE8       30.12F
FORT DODGE *   PTSUNNY   72  64  78 E8        30.10F
MASON CITY     PTSUNNY   72  59  63 SE6       30.13F
FOREST CITY *  SUNNY     72  61  68 SE5       30.12F
IOWA FALLS *     N/A     73  63  68 CALM      30.12F
$$

IAZ007>011-017>019-026>030-037>042-050>054-066-280000-
   NORTHEAST IOWA

CITY           SKY/WX    TMP DP  RH WIND       PRES   REMARKS
CEDAR RAPIDS   SUNNY     76  63  64 E5        30.09F
CHARLES CITY * SUNNY     73  61  64 VRB5      30.13F
CLINTON *      CLOUDY    75  63  64 NE10      30.12S
DECORAH *      SUNNY     72  61  68 N5        30.13F
DUBUQUE        PTSUNNY   74  61  63 NE8       30.12F
MONTICELLO *   SUNNY     75  61  60 VRB3      30.10F
OELWEIN *      SUNNY     72  63  73 NE7       30.12F
WATERLOO       PTSUNNY   74  58  57 E7        30.10F
$$

IAZ064-065-067-068-078-280000-
   EAST CENTRAL IOWA

CITY           SKY/WX    TMP DP  RH WIND       PRES   REMARKS
DAVENPORT      PTSUNNY   75  63  66 NE10      30.09F
IOWA CITY      SUNNY     76  64  66 NE9       30.10S
MT. PLEASANT * MOSUNNY   79  68  69 NE5       30.08F HX  81
MUSCATINE *    MOSUNNY   79  66  65 E8        30.09R HX  81
QUAD CITIES    CLOUDY    76  62  62 NE8       30.08F
$$

IAZ062-063-075>077-085>089-095>099-280000-
   SOUTHEAST IOWA

CITY           SKY/WX    TMP DP  RH WIND       PRES   REMARKS
BURLINGTON     LGT RAIN  79  69  71 E3        30.07F HX  81
FAIRFIELD *    PTSUNNY   77  68  73 NE5       30.08F
FORT MADISON * SUNNY     79  72  78 E3        30.08F HX  82
KEOKUK *       SUNNY     79  70  73 NE5       30.06F HX  81
OSKALOOSA *      N/A     75  70  83 E6        30.09S
CENTERVILLE *  MOSUNNY   75  72  88 E3        30.09S
OTTUMWA        PTSUNNY   76  67  73 NE8       30.07F
WASHINGTON *   PTSUNNY   77  70  78 NE7       30.09S
$$

ABBREVIATIONS USED IN REMARKS
   TC - TEMPERATURES IN CELSIUS
  WCI - WIND CHILL INDEX
   HX - HEAT INDEX
  VSB - VISIBILITY
$$



USA.gov is the U.S. government's official web portal to all federal, state and local government web resources and services.